Location: Peterborough
(44.3091°N, 78.3197°W)
Time: 16:52:44
(UTC-04:00)

Explorer 7 - Pass Details

Date: 22 March 2023
Orbit: 477 x 653 km, 50.3° (Epoch: 04 June)

Event Time Altitude Azimuth Distance (km) Brightness Sun altitude
Rises 00:46:17 0° 297° (WNW) 2,660 - -44.5°
Reaches altitude 10° 00:48:33 10° 296° (WNW) 1,740 - -44.6°
Maximum altitude 00:52:28 76° 211° (SSW) 515 - -44.7°
Drops below altitude 10° 00:56:12 10° 125° (SE) 1,661 - -44.8°
Sets 00:58:20 0° 124° (SE) 2,526 - -44.9°
